Hourly Data

Hourly Data Report for July 23, 2014

All times are specified in Local Standard Time (LST). Add 1 hour to adjust for Daylight Saving Time where and when it is observed.

Metadata including Station Name, Province, Latitude, Longitude, Elevation, Climate ID, WMO ID, TC ID
MONTREAL MIRABEL INTL A
QUEBEC
Latitude: 45°40'50.000" N Longitude: 74°02'19.000" W Elevation: 82.30 m
Climate ID: 7034900 WMO ID: TC ID: YMX
Hourly Data Report for July 23, 2014
Temp Definition
°C

Dew Point Temp Definition
°C

Rel Hum Definition
%

Wind Dir Definition
10's deg
Wind Spd Definition
km/h

Visibility Definition
km

Stn Press Definition
kPa

Hmdx Definition

Wind Chill Definition

Weather Definition

00:00 Legend Double Dagger 21.4 16.0 71 22 11 24.1 100.05 26 LegendNANA
01:00 Legend Double Dagger 20.4 15.9 75 25 4 24.1 100.00 25 Cloudy
02:00 Legend Double Dagger 20.0 15.9 77 24 5 24.1 99.94 25 LegendNANA
03:00 Legend Double Dagger 19.8 16.1 79 25 8 24.1 99.87 LegendNANA
04:00 Legend Double Dagger 19.8 16.5 81 25 5 24.1 99.83 Mostly Cloudy
05:00 Legend Double Dagger 20.0 17.1 83 25 6 24.1 99.83 25 LegendNANA
06:00 Legend Double Dagger 20.1 18.1 88 23 7 16.1 99.79 26 Rain Showers
07:00 Legend Double Dagger 19.7 18.7 94 24 8 12.9 99.82 Thunderstorms,Rain Showers
08:00 Legend Double Dagger 20.9 19.9 94 25 9 8.1 99.85 28 Fog
09:00 Legend Double Dagger 21.2 20.6 96 23 7 6.4 99.80 29 Rain Showers,Fog
10:00 Legend Double Dagger 22.0 21.2 95 22 7 9.7 99.82 31 Fog
11:00 Legend Double Dagger 23.2 21.7 91 22 10 9.7 99.75 32 Fog
12:00 Legend Double Dagger 22.0 19.8 87 26 12 16.1 99.78 29 Rain Showers
13:00 Legend Double Dagger 25.6 20.1 71 32 14 32.2 99.75 33 Mainly Clear
14:00 Legend Double Dagger 24.6 17.7 65 32 19 40.2 99.81 30 LegendNANA
15:00 Legend Double Dagger 24.4 16.0 59 33 29 72.4 99.83 29 LegendNANA
16:00 Legend Double Dagger 24.1 14.7 55 32 26 72.4 99.87 28 Mainly Clear
17:00 Legend Double Dagger 22.6 14.3 59 34 23 72.4 99.93 26 LegendNANA
18:00 Legend Double Dagger 22.4 13.9 58 35 13 72.4 100.00 26 LegendNANA
19:00 Legend Double Dagger 20.5 12.6 60 34 13 72.4 100.10 Mostly Cloudy
20:00 Legend Double Dagger 18.9 13.2 69 30 8 40.2 100.14 LegendNANA
21:00 Legend Double Dagger 16.9 13.3 79 30 8 24.1 100.18 LegendNANA
22:00 Legend Double Dagger 16.7 12.1 74 32 9 40.2 100.22 Mostly Cloudy
23:00 Legend Double Dagger 15.6 10.8 73 34 12 40.2 100.28 LegendNANA

Notes on Data Quality.

Legend
  • M = Missing
  • E = Estimated
  • NA = Not Available
  • ‡ = Partner data that is not subject to review by the National Climate Archives